Seattle Boeing, WA
on Saturday, December 29, 2012

Saturday
Previous Day Next Day
Daily Summary
 ActualAverage (KSEA)Record (KSEA)
Temperature
Mean Temperature °F 40°F  
Max Temperature 43°F 45°F 54°F (1949)
Min Temperature 39°F 36°F 8°F (1968)
Degree Days
Heating Degree Days 24 24  
Month to date heating degree days 709  
Since 1 July heating degree days 1892  
Cooling Degree Days 0 0  
Month to date cooling degree days 0  
Year to date cooling degree days 189  
Moisture
Dew Point 34°F   
Average Humidity 77    
Maximum Humidity 86    
Minimum Humidity 66    
Precipitation
Precipitation 0.06 in 0.16 in 1.92 in (1996)
Month to date precipitation 5.03  
Year to date precipitation 37.17  
Snow
Snow 0.00 in in 2.10 in (1971)
Month to date snowfall  
Since 1 July snowfall  
Snow Depth in   
Wind
Wind Speed 3 mph   
Max Wind Speed 7 mph   
Max Gust Speed mph   
Visibility 10 miles   
Events Rain   

Key: T is trace of precipitation, MM is missing value
Source: NWS Daily Summary
Time(PST)TemperatureDew PointHumidity Pressure Visibility Wind DirectionWind SpeedGust SpeedPrecipitationEvents Conditions
12:53 AM 39.9°F 30.9°F 70% 30.17 in 10.0 miles ESE 3.5 mph - N/A   Scattered Clouds
1:53 AM 39.0°F 32.0°F 76% 30.18 in 10.0 miles SSE 3.5 mph - N/A   Overcast
2:53 AM 39.9°F 32.0°F 73% 30.19 in 10.0 miles SSE 3.5 mph - N/A   Overcast
3:53 AM 39.0°F 32.0°F 76% 30.18 in 10.0 miles SE 4.6 mph - N/A   Overcast
4:53 AM 39.0°F 32.0°F 76% 30.18 in 10.0 miles SE 5.8 mph - 0.00 in   Overcast
5:53 AM 39.9°F 30.9°F 70% 30.18 in 10.0 miles SSE 4.6 mph - N/A   Overcast
6:53 AM 39.9°F 32.0°F 73% 30.19 in 10.0 miles Calm Calm - 0.00 in   Overcast
7:53 AM 39.9°F 30.9°F 70% 30.19 in 10.0 miles Calm Calm - 0.00 in Rain Light Rain
8:53 AM 39.9°F 33.1°F 77% 30.19 in 10.0 miles Calm Calm - 0.01 in Rain Light Rain
9:53 AM 41.0°F 33.1°F 73% 30.21 in 10.0 miles Calm Calm - 0.00 in   Overcast
10:22 AM 42.8°F 32.0°F 66% 30.21 in 10.0 miles SE 3.5 mph - 0.00 in Rain Light Rain
10:53 AM 42.1°F 34.0°F 73% 30.19 in 10.0 miles SSE 6.9 mph - 0.00 in Rain Light Rain
11:53 AM 42.1°F 33.1°F 70% 30.18 in 10.0 miles SSE 3.5 mph - 0.00 in   Overcast
12:53 PM 43.0°F 35.1°F 74% 30.17 in 10.0 miles Calm Calm - 0.01 in Rain Light Rain
1:53 PM 42.1°F 36.0°F 79% 30.16 in 10.0 miles SSE 4.6 mph - 0.02 in Rain Light Rain
2:49 PM 42.8°F 35.6°F 76% 30.16 in 10.0 miles ESE 3.5 mph - 0.00 in Rain Light Rain
2:53 PM 42.8°F 33.8°F 70% 30.16 in 10.0 miles SE 3.5 mph - N/A   Overcast
3:53 PM 42.1°F 36.0°F 79% 30.16 in 10.0 miles ESE 3.5 mph - 0.00 in Rain Light Rain
4:53 PM 41.0°F 36.0°F 82% 30.17 in 10.0 miles Calm Calm - 0.00 in   Overcast
5:53 PM 42.1°F 36.0°F 79% 30.17 in 10.0 miles Calm Calm - N/A   Overcast
6:04 PM 42.8°F 35.6°F 76% 30.18 in 10.0 miles Calm Calm - N/A   Overcast
6:53 PM 41.0°F 36.0°F 82% 30.18 in 10.0 miles Calm Calm - 0.00 in Rain Light Rain
7:53 PM 41.0°F 37.0°F 86% 30.18 in 10.0 miles Calm Calm - 0.01 in   Overcast
8:53 PM 41.0°F 37.0°F 86% 30.20 in 5.0 miles Calm Calm - 0.00 in Rain Light Rain
9:53 PM 41.0°F 37.0°F 86% 30.22 in 7.0 miles Calm Calm - 0.00 in   Overcast
10:53 PM 42.1°F 37.9°F 85% 30.23 in 8.0 miles Calm Calm - 0.01 in   Overcast
11:53 PM 42.1°F 37.9°F 85% 30.24 in 8.0 miles Calm Calm - N/A   Overcast
Moon Phase
Dec. 29 Jan. 04 Jan. 11 Jan. 18 Jan. 26
Sunrise:07:57 AM (PST) Moon Rise:06:12 PM (PST)12/29
Sunset:04:26 PM (PST) Moon Set:08:27 AM (PST)12/29

Copyright © 2014 The Weather Underground, Inc.